Location: �perlecques
(50.8057°N, 2.1521°E)
Time: 21:23:54
(UTC+00:00)

DIWATA 2B (PO-101) - Visible Passes

Search period start: 19 September 2021 00:00
Search period end: 29 September 2021 00:00
Orbit: 584 x 600 km, 97.9° (Epoch: 19 September)

Date Brightness Start Highest point End Pass type
(mag) Time Alt. Az. Time Alt. Az. Time Alt. Az.
19 Sep ? 00:52:11 14° N 00:52:11 14° N 00:52:48 10° N visible
20 Sep ? 01:01:07 13° N 01:01:07 13° N 01:01:34 10° N visible
21 Sep ? 01:10:03 12° NNW 01:10:03 12° NNW 01:10:19 10° NNW visible
22 Sep ? 01:19:00 10° NNW 01:19:00 10° NNW 01:19:03 10° NNW visible
